Wind_Speed
29 30 31 30 30 30 31 31 31 31 32 30 29 27 26 25 24 23 23 23 23 24 24 25 25 26 26 27 27 28 28 27 27 26 26 25 25 25 25 25 25 26 26 26 27 27 27 27 27 27 27 27 26 26 26 25 25 25 25 25 26 26 26 26 26 27 27 27 27 28 28 28 28 29 29 29 29 29 29 29 30 30 31 31 32 32
30 30 30 29 29 30 31 31 31 30 30 30 29 27 26 26 26 25 25 25 25 25 25 26 26 27 27 28 28 29 29 28 27 26 26 25 25 25 25 26 26 26 26 27 27 27 26 26 26 26 26 26 26 26 25 25 25 25 25 25 26 26 26 27 27 27 28 28 28 29 29 29 29 29 29 30 30 30 29 29 29 30 30 30 31 31
30 30 30 29 29 30 31 31 30 29 29 29 28 28 27 28 28 28 27 27 27 26 26 26 26 27 28 28 29 29 29 28 27 27 26 26 26 26 26 26 26 25 25 25 25 25 25 25 26 26 26 26 26 26 26 26 26 26 26 26 26 27 27 28 28 29 29 29 29 29 30 30 30 30 30 30 30 30 30 30 30 30 31 31 31 31
29 30 30 30 29 29 29 30 30 30 29 29 29 28 28 28 29 29 28 28 28 27 27 26 26 27 28 29 30 30 30 29 28 27 27 27 26 26 25 25 24 24 24 23 24 24 24 25 25 25 26 26 26 26 26 26 26 26 26 27 27 28 28 29 29 29 29 29 29 30 30 30 30 30 30 30 30 30 31 31 31 31 32 32 32 32
29 29 29 29 29 28 28 29 29 30 30 29 29 29 29 29 29 29 29 28 28 28 27 26 26 27 28 29 30 31 30 29 28 28 27 27 26 25 24 24 24 23 23 23 24 24 25 25 26 26 26 27 26 26 26 26 26 27 27 28 28 28 29 29 29 29 29 29 29 29 29 29 29 29 29 29 30 30 30 31 31 32 32 32 32 32
29 28 27 27 27 27 28 28 28 29 29 29 29 29 29 29 29 29 29 28 28 27 27 27 27 27 28 29 30 31 30 29 29 28 27 26 26 25 25 25 24 24 24 25 25 25 26 26 26 27 27 27 28 28 27 28 28 28 28 28 28 28 28 28 28 27 27 27 28 28 28 28 28 28 28 29 29 29 29 30 30 31 31 31 31 31
28 26 25 25 26 26 27 27 28 28 28 29 29 29 29 29 29 28 28 27 27 27 28 28 28 28 29 30 30 31 30 30 29 28 27 27 26 26 26 26 26 26 26 26 26 27 27 27 27 27 28 28 29 29 29 30 30 29 29 29 29 28 27 27 26 26 26 26 26 27 27 27 27 27 28 28 28 28 28 28 29 29 29 29 29 29
27 26 25 25 26 26 27 27 27 27 28 29 29 30 30 30 29 28 28 27 27 27 27 28 28 29 30 30 30 30 30 29 29 29 28 28 28 28 27 27 27 27 27 27 27 27 27 28 28 28 29 30 30 31 31 31 30 29 29 28 27 26 26 26 25 25 25 25 25 26 26 26 26 26 26 27 27 27 27 27 27 27 28 28 28 29
26 26 25 25 25 26 28 28 27 27 28 28 28 29 29 29 29 28 27 27 26 26 27 28 29 30 30 30 30 30 29 29 29 29 29 29 29 29 29 28 28 28 28 28 28 28 29 29 30 31 32 32 32 31 30 29 28 27 25 24 24 24 24 24 24 24 25 25 25 24 25 25 25 25 25 26 26 26 26 27 27 27 27 28 28 28
25 25 26 26 25 25 27 28 29 29 28 27 26 26 26 26 27 28 28 27 27 27 27 28 29 30 31 30 30 30 30 30 29 29 29 29 29 29 29 29 29 29 29 29 29 30 31 32 33 33 33 32 30 29 27 26 25 23 23 22 22 22 22 23 23 24 24 24 24 23 24 24 24 25 25 26 26 27 27 27 27 28 28 28 29 29
25 25 25 26 26 26 27 29 30 30 28 26 25 24 23 23 25 27 28 29 29 29 28 28 28 29 30 31 31 31 31 31 30 29 29 29 29 29 29 29 29 30 30 31 32 34 35 35 35 33 32 29 27 26 24 23 22 22 21 21 21 21 22 22 23 23 23 23 23 24 24 25 25 26 26 27 27 28 28 28 28 28 29 29 29 29
25 25 26 27 27 28 29 29 29 28 26 25 24 23 22 22 24 26 28 29 29 29 29 28 28 28 29 31 31 31 31 30 30 30 30 30 30 30 30 30 30 32 33 35 36 37 36 36 34 32 29 26 24 23 22 22 22 21 21 21 21 21 22 22 22 23 23 23 24 25 25 26 26 27 27 28 28 28 28 29 29 29 29 30 30 30
25 25 26 27 27 28 28 28 26 25 24 23 23 24 25 25 26 26 27 27 27 28 29 29 29 29 30 30 30 30 29 29 29 29 29 29 29 30 30 31 32 34 36 37 38 38 37 35 32 29 26 24 23 22 22 22 22 22 21 21 22 22 23 23 23 23 24 24 25 26 26 26 27 27 27 28 28 28 29 29 29 30 30 30 30 31
25 25 26 26 26 26 25 25 24 24 24 24 25 26 26 26 26 25 25 26 26 27 28 29 30 31 30 29 28 28 27 28 28 28 29 29 29 30 31 32 34 35 37 38 38 37 35 33 30 27 24 23 22 22 22 22 22 22 22 22 23 23 24 25 25 25 25 25 25 26 26 27 27 27 28 28 28 29 29 29 30 30 30 31 31 31
25 25 25 25 25 25 24 24 24 25 25 26 26 26 26 25 25 24 25 26 27 28 28 29 30 31 29 28 26 26 26 26 27 28 29 30 31 32 33 34 35 36 37 38 37 36 32 30 28 26 24 23 22 22 23 23 23 23 23 24 24 25 25 25 26 26 26 26 26 26 26 27 27 28 28 28 29 29 29 30 30 30 30 31 31 31
24 25 26 26 26 25 25 24 25 26 26 26 26 25 24 24 24 24 25 26 27 28 29 30 31 31 30 27 26 24 25 25 26 28 31 33 34 34 34 34 35 36 37 37 36 34 30 28 26 25 24 24 24 24 24 24 24 24 24 24 25 25 25 26 26 27 27 27 27 27 27 27 27 28 28 29 29 29 29 30 30 30 30 30 30 31
25 25 27 28 27 26 25 25 25 26 26 26 25 24 24 24 24 25 25 27 28 29 29 29 30 30 29 29 28 26 25 26 28 30 33 34 35 35 35 34 35 36 37 36 34 31 29 27 26 25 25 25 25 25 25 25 25 24 24 24 24 25 25 26 26 27 28 28 28 28 27 27 27 28 28 28 29 29 29 29 29 29 29 29 29 29
26 26 26 26 26 26 26 26 25 25 25 25 25 24 24 24 25 26 27 29 30 30 30 31 30 29 30 30 29 28 28 29 31 33 35 36 37 37 35 34 34 35 35 34 32 30 28 27 27 26 26 26 26 26 26 26 25 25 24 24 24 25 25 26 26 27 28 29 29 29 28 28 27 27 28 28 28 28 28 28 28 28 28 28 28 28
27 27 26 26 26 26 26 26 26 25 25 25 25 25 26 26 27 28 29 29 30 31 31 31 30 30 31 31 32 32 31 31 33 34 35 36 37 37 35 33 32 33 33 32 31 29 28 28 28 28 28 28 27 27 27 26 26 25 25 25 25 26 26 27 27 27 28 28 29 29 28 28 27 27 27 27 27 27 27 27 27 28 28 28 28 29
27 26 26 26 27 27 27 26 26 25 25 25 25 26 28 29 30 30 30 31 31 31 31 31 30 30 31 32 34 35 35 34 35 36 35 36 36 35 33 31 31 31 32 32 31 29 29 29 29 30 29 29 29 28 28 27 27 27 26 26 26 26 26 27 27 27 27 27 28 28 28 27 27 27 27 27 28 28 28 28 28 28 28 29 29 29
27 27 26 26 27 27 27 27 26 25 25 25 26 28 30 31 31 31 31 31 31 30 29 28 29 30 32 34 36 38 39 37 35 34 34 34 34 33 31 30 29 30 31 32 31 30 30 31 31 32 31 31 30 30 29 29 28 28 27 27 27 27 27 27 27 27 27 27 27 27 27 28 28 28 28 29 29 30 29 29 29 29 29 29 29 30
26 27 26 25 25 26 26 26 26 25 25 26 28 30 31 31 31 31 30 29 29 28 29 30 32 34 35 37 38 39 38 35 33 32 31 33 33 32 31 29 28 29 30 31 31 31 31 32 33 33 33 33 32 31 31 30 29 29 28 27 27 27 27 27 27 27 27 27 27 28 28 29 29 30 30 30 30 30 30 29 29 29 29 29 29 29
25 26 26 25 24 24 25 26 26 26 26 27 29 30 31 29 28 27 27 28 29 31 33 35 36 37 37 36 36 36 34 32 29 28 28 30 31 31 30 29 28 29 30 31 32 32 32 33 33 34 34 34 33 33 32 31 30 29 29 28 28 27 27 27 27 27 28 28 28 29 29 30 30 30 31 31 30 30 29 29 29 29 29 29 29 29
23 24 24 24 24 24 25 26 27 27 28 29 29 30 28 27 27 28 30 33 35 36 36 35 35 35 35 35 34 33 32 29 26 25 25 27 29 30 30 29 28 29 30 31 31 31 32 33 34 34 35 35 35 34 33 32 30 30 29 29 28 28 28 28 28 28 29 29 29 30 30 30 30 30 29 29 29 29 29 28 28 28 28 28 28 28
21 21 22 23 23 24 25 25 26 26 27 28 28 29 29 31 33 35 36 36 36 34 33 32 31 32 33 31 31 31 31 28 25 24 25 27 29 30 30 29 29 29 31 32 32 31 31 32 33 34 35 35 35 34 32 31 31 30 30 29 29 28 28 29 29 29 30 30 30 30 29 29 29 28 28 28 28 28 28 28 28 28 28 28 28 28
19 20 21 22 22 23 24 24 25 25 26 27 29 31 33 35 35 35 34 33 31 29 29 29 30 31 31 30 30 31 30 28 26 24 24 26 28 30 31 30 29 29 31 32 32 31 31 32 33 34 35 35 35 33 32 32 31 31 30 30 29 29 29 30 30 30 30 29 29 29 28 28 28 28 28 28 28 27 27 28 28 28 28 28 28 29
21 21 22 22 23 24 25 26 27 28 28 29 29 29 30 29 29 29 28 27 27 26 27 29 30 30 30 29 29 30 30 29 27 25 25 25 27 30 31 30 29 30 31 32 32 31 31 32 33 34 35 35 34 33 33 33 32 32 31 31 30 30 30 30 30 29 29 29 28 28 28 28 28 28 27 27 27 27 27 28 28 28 28 28 29 30
23 23 24 25 26 27 28 30 31 31 30 29 27 25 23 22 22 23 24 24 24 25 26 27 28 28 28 28 29 30 31 30 28 26 24 24 26 28 29 30 30 30 31 32 33 33 32 32 33 33 34 33 33 33 33 34 33 33 32 32 31 31 30 30 30 29 29 29 28 28 28 28 28 28 28 28 28 28 28 28 28 28 28 28 29 30
25 26 28 29 30 31 32 33 32 30 27 24 21 19 18 18 20 22 23 23 22 23 25 26 27 27 28 29 30 31 32 30 28 25 23 24 26 29 30 30 29 29 30 32 33 33 32 30 29 29 30 31 32 33 34 35 35 34 33 33 32 32 31 31 30 30 30 30 29 29 29 29 29 28 28 28 27 27 27 27 27 27 27 28 28 29
28 29 31 32 32 32 32 30 28 25 22 20 19 18 18 18 20 21 21 21 21 22 24 25 27 28 29 29 30 30 30 29 27 24 24 25 27 30 31 30 29 30 30 31 32 32 31 30 28 26 27 29 31 33 35 35 36 35 35 34 34 33 33 32 32 31 31 31 31 30 30 30 29 28 28 27 26 26 25 25 24 25 26 27 28 29
30 31 32 32 31 29 27 25 22 21 20 20 20 20 20 20 20 20 20 20 21 22 24 25 27 28 28 29 28 27 29 30 29 26 26 27 29 31 31 30 30 30 30 29 29 29 29 30 30 28 28 30 32 34 35 36 36 36 36 36 36 35 34 33 33 33 33 32 32 32 31 30 29 28 27 26 25 24 23 23 22 23 24 26 27 28
31 31 31 29 27 24 22 21 21 21 22 22 22 22 21 21 21 21 21 21 21 22 24 26 27 28 28 28 28 29 32 33 32 29 27 28 29 31 31 31 31 31 31 30 29 29 28 30 32 33 32 32 33 34 35 35 36 36 36 36 37 36 35 34 34 34 34 34 34 33 31 30 29 27 26 25 24 23 22 21 21 22 23 25 26 27
29 28 27 25 23 22 21 21 22 23 23 23 23 22 22 22 21 21 21 21 22 23 24 26 27 29 30 30 31 33 34 34 33 30 28 28 30 31 31 31 32 33 33 32 31 30 30 33 35 36 35 34 33 33 34 35 36 36 36 36 37 37 36 36 36 36 36 35 35 33 32 30 29 27 26 25 24 23 22 21 21 21 22 23 25 26
26 25 24 22 22 22 23 23 24 24 24 24 23 23 23 22 22 22 22 22 23 23 25 26 27 29 30 32 33 34 35 34 32 30 28 29 31 32 33 32 33 34 33 33 32 31 32 33 34 35 35 35 34 33 34 34 35 35 35 35 36 37 37 37 37 37 37 36 35 34 32 31 29 28 27 26 25 24 23 22 21 21 21 22 24 25
24 23 22 22 23 24 24 24 25 25 24 24 24 23 23 23 23 23 23 23 23 24 24 25 26 27 29 31 33 35 36 35 33 30 29 30 32 33 34 33 33 34 34 34 33 32 32 33 33 34 35 35 35 35 34 33 33 34 35 35 36 37 38 38 37 37 37 36 36 35 33 32 31 30 28 27 26 25 25 24 23 22 22 22 23 25
23 23 23 23 23 24 24 24 25 25 25 24 24 23 23 23 23 23 23 23 24 24 24 24 25 26 27 29 31 33 35 35 33 31 29 30 31 33 35 34 34 34 35 35 36 35 35 35 35 35 35 34 35 35 34 34 34 34 36 37 37 37 38 37 37 37 36 36 36 35 34 33 33 32 31 29 28 27 26 25 25 24 24 24 24 24
23 23 23 23 23 24 24 25 25 25 25 25 25 24 24 24 24 24 24 24 24 25 25 26 26 27 27 28 30 32 33 34 33 31 30 29 29 31 34 35 34 34 34 36 37 38 37 37 36 36 34 33 33 33 35 36 36 37 38 38 38 38 38 37 36 36 36 36 36 36 35 35 34 34 33 32 31 29 28 27 26 25 25 25 25 25
22 23 23 23 23 24 24 25 25 25 25 25 25 25 24 24 24 24 24 25 26 26 27 28 29 29 29 30 30 31 32 32 32 31 30 28 28 29 32 34 34 34 34 35 36 37 38 37 36 36 35 34 34 34 36 37 38 39 39 39 39 38 37 37 36 35 35 35 36 36 36 36 35 35 34 33 32 31 31 30 28 27 27 27 27 26
22 23 23 23 23 24 24 24 25 25 25 25 25 25 25 25 25 25 25 26 27 28 29 29 30 31 31 31 31 31 31 31 31 30 29 28 27 28 29 32 33 33 33 33 34 36 37 37 37 37 36 36 37 37 38 38 39 39 40 39 39 38 38 36 35 34 35 35 36 37 37 36 35 35 35 34 34 33 33 33 32 31 30 31 31 31
22 22 23 23 23 23 24 24 24 25 25 25 25 25 25 25 26 26 27 27 28 29 30 30 31 31 31 31 31 31 31 31 30 30 29 28 28 28 28 30 32 32 33 33 34 35 36 37 38 38 37 38 39 39 40 40 40 40 39 38 38 38 38 37 37 36 36 36 36 36 37 36 36 36 36 35 35 35 35 35 34 34 33 34 34 35
21 22 22 22 22 22 23 24 24 24 25 25 25 25 25 26 26 28 29 30 30 31 31 31 31 31 31 32 31 31 31 30 30 30 29 29 28 28 28 29 30 31 32 33 34 34 36 37 38 38 39 40 40 40 40 41 40 39 37 37 39 40 40 39 39 38 37 36 36 36 36 36 36 36 36 36 36 36 36 36 36 36 35 35 35 36
21 22 22 22 22 22 23 23 24 24 24 25 25 26 26 26 27 29 30 32 32 32 32 31 32 32 33 33 33 32 31 31 31 30 30 29 29 28 28 29 29 30 31 33 34 35 35 36 37 38 39 39 39 39 39 41 41 40 39 39 40 41 41 40 39 37 36 36 36 36 36 36 36 37 37 37 38 38 37 37 37 37 37 37 37 37
21 21 22 21 22 22 23 23 24 24 24 25 25 26 26 27 28 29 31 32 32 32 32 31 32 33 35 36 35 34 33 33 32 31 31 30 29 28 28 28 29 29 31 32 34 35 36 36 36 37 38 38 38 38 39 41 42 42 41 40 40 39 38 40 40 38 37 37 37 37 37 37 37 38 38 39 39 39 39 39 38 38 38 38 38 38
21 21 21 21 22 22 23 23 24 24 25 26 26 26 27 27 28 30 30 31 32 32 32 32 32 33 35 35 36 37 36 35 33 32 31 30 30 29 29 29 29 30 30 31 33 35 36 36 36 37 36 37 38 39 41 41 42 42 42 41 40 38 38 40 41 40 39 39 38 38 38 38 38 39 40 40 41 41 41 40 40 40 39 39 38 38
21 21 21 21 22 23 23 24 24 25 26 26 27 27 28 28 29 30 30 31 32 32 32 32 32 33 33 34 36 37 37 37 35 34 33 32 31 30 30 30 30 30 31 31 32 33 35 36 37 37 37 37 38 39 40 41 42 42 42 42 41 40 41 41 41 40 40 39 39 39 39 39 39 39 40 40 41 41 41 40 40 41 40 40 39 39
21 22 22 22 23 23 24 24 25 26 26 27 27 28 28 29 30 30 30 31 31 32 32 32 32 32 33 35 36 37 37 38 37 36 35 34 33 32 31 31 31 31 31 32 32 33 34 35 36 37 37 38 38 39 40 40 41 41 42 41 41 40 40 40 40 39 39 39 40 40 39 39 38 38 39 40 40 41 41 40 40 40 40 40 40 40
21 22 22 23 23 24 24 25 25 26 26 27 27 28 29 29 30 30 30 30 31 32 32 32 32 33 33 34 35 35 36 37 37 37 37 36 35 34 33 32 31 31 31 32 33 33 34 34 35 35 36 37 39 40 40 40 39 40 40 40 40 40 40 41 41 40 40 39 40 40 40 38 37 36 38 40 41 41 41 40 39 39 39 39 39 39
21 22 22 23 24 24 25 25 25 25 26 27 28 29 29 30 30 30 31 31 31 31 32 32 33 33 34 35 35 35 34 35 36 37 37 37 36 35 35 34 33 33 33 33 33 33 33 34 34 34 34 35 37 38 39 39 38 38 39 39 39 40 40 41 41 41 40 39 39 39 39 37 37 38 39 41 41 41 40 40 39 39 39 39 39 39
21 22 23 23 24 25 25 25 25 26 27 28 29 30 30 30 30 30 31 31 31 32 32 33 33 34 34 35 35 35 34 34 35 36 37 37 36 36 36 36 36 35 35 35 34 34 34 35 34 33 31 31 32 34 36 37 38 38 38 38 39 39 40 41 41 40 39 38 39 39 38 38 38 39 40 40 40 41 41 41 40 39 39 38 38 38
21 22 22 23 24 25 25 25 25 26 28 29 30 31 32 31 31 31 31 31 32 32 33 33 33 34 34 35 35 35 34 34 35 36 36 36 36 36 36 36 37 37 37 37 36 36 36 35 34 32 30 28 28 29 32 35 36 37 37 37 37 38 39 40 39 39 38 38 38 39 39 39 40 40 40 39 40 41 42 41 40 39 37 37 36 36
21 22 22 23 24 24 25 25 26 27 28 29 31 32 33 33 32 32 32 32 33 33 34 34 34 33 34 34 35 35 34 34 35 36 37 36 36 36 37 37 37 37 37 36 35 34 33 33 32 31 31 28 26 25 28 31 34 36 37 36 37 37 37 38 38 38 38 38 39 40 41 41 41 40 39 39 39 40 41 40 39 38 37 36 35 36
Wind_Direction
304 306 308 309 310 309 309 310 311 312 313 315 318 320 322 322 321 320 321 321 321 321 320 320 320 320 320 320 320 319 317 314 311 309 307 306 305 304 304 303 301 300 299 298 298 297 296 296 296 296 295 295 294 293 292 292 291 291 290 290 289 288 288 287 287 286 285 283 282 281 280 280 278 277 275 275 274 273 273 273 272 270 270 270 270 270
306 308 309 310 310 310 310 311 312 313 314 317 319 322 324 324 324 324 324 324 324 323 321 320 320 319 319 319 318 318 316 314 312 310 309 308 307 305 303 302 301 300 299 299 299 298 298 297 297 297 297 296 296 295 294 293 293 292 292 290 290 289 288 287 287 286 284 284 283 281 280 279 278 276 275 275 274 274 273 273 272 271 270 270 270 270
308 309 310 310 311 310 310 312 313 315 316 318 321 324 326 325 325 324 325 325 324 322 321 319 318 317 317 317 317 316 315 313 312 312 311 309 308 306 304 303 302 302 302 301 301 300 300 299 299 298 298 298 297 296 295 295 294 293 292 291 290 289 288 287 286 285 284 283 282 281 280 279 278 277 276 276 275 275 274 273 272 271 270 270 270 270
309 310 310 312 312 311 311 312 314 316 318 320 322 325 326 324 323 323 323 323 322 321 320 318 317 316 315 315 315 315 314 313 312 311 310 309 308 308 308 307 307 307 306 305 305 303 302 301 300 300 299 298 298 297 296 295 294 293 292 291 290 289 288 287 286 285 284 283 282 280 279 278 278 277 277 276 275 275 274 273 271 271 270 270 269 269
309 310 311 313 312 312 311 313 314 316 318 320 322 323 323 322 321 321 321 321 320 319 318 317 316 314 313 313 313 313 312 311 310 310 310 310 311 311 311 311 311 311 310 310 308 306 304 303 302 301 300 299 298 297 296 295 294 293 292 291 290 289 288 288 287 285 284 283 281 280 279 278 277 277 277 276 275 274 273 272 271 270 269 269 269 268
309 311 312 312 311 310 311 312 313 315 318 320 321 321 320 320 319 319 319 319 318 317 316 315 314 313 311 310 310 310 310 310 310 311 312 313 314 315 315 315 314 313 313 311 309 307 305 304 303 301 300 299 297 297 296 295 294 293 292 291 290 290 289 288 287 286 285 283 282 281 280 279 279 278 277 277 276 275 274 273 272 271 270 270 269 269
310 311 312 311 310 309 309 309 312 315 318 319 319 319 320 319 318 318 317 317 316 316 315 314 312 310 309 308 308 309 310 311 313 314 316 317 317 318 317 316 315 314 313 310 308 306 305 304 303 301 299 298 297 296 295 294 293 293 292 292 291 290 290 289 287 286 284 283 282 281 281 280 280 279 278 278 277 276 276 275 274 273 272 271 271 270
311 311 310 310 309 308 308 308 311 317 321 320 319 319 319 318 318 317 316 316 315 314 313 312 310 308 307 307 308 310 312 314 315 317 318 319 319 319 318 316 315 313 311 308 306 305 305 304 302 301 299 298 297 296 296 295 295 294 293 292 291 289 289 289 288 287 286 285 283 282 282 281 280 279 278 278 277 277 276 276 275 274 273 272 272 270
309 308 308 307 307 307 308 309 312 318 323 322 320 318 318 318 318 317 315 314 313 312 310 309 307 307 307 309 311 313 314 315 316 317 318 318 319 319 318 316 313 311 309 307 306 306 305 304 302 301 301 301 300 300 300 299 297 296 294 292 290 289 289 289 289 289 288 287 286 285 283 282 281 280 279 279 278 278 278 277 276 275 274 273 272 271
306 305 306 306 306 307 309 309 314 320 324 322 319 317 317 317 317 315 313 311 310 309 308 307 307 308 309 312 315 316 317 316 317 317 317 317 317 316 315 313 311 309 308 307 306 306 305 305 304 305 305 306 305 304 303 301 299 296 294 293 292 292 292 292 291 291 291 290 290 288 286 284 283 282 281 281 281 280 279 278 276 275 274 273 272 271
305 305 305 306 307 308 310 311 316 321 323 320 317 315 315 314 314 312 311 310 309 309 309 309 309 309 311 313 315 318 318 318 318 318 318 318 317 315 313 311 309 308 307 306 305 306 307 307 308 309 309 309 308 306 304 302 299 297 295 295 295 295 295 295 295 294 294 293 292 290 288 286 284 283 283 282 282 281 279 277 276 275 274 273 272 271
306 306 306 308 309 311 313 315 318 319 318 316 314 313 311 309 308 307 307 308 309 310 310 311 310 310 311 312 315 317 318 317 316 316 316 315 315 314 312 309 308 307 306 305 306 308 310 311 311 312 312 311 309 307 305 303 301 299 298 298 298 299 299 299 298 296 295 293 291 289 287 286 284 283 283 282 281 280 278 277 276 275 274 273 272 271
308 308 308 308 309 311 313 315 315 314 312 311 310 309 308 307 307 307 307 306 307 309 310 310 310 311 312 314 315 316 316 315 314 313 311 310 310 310 308 306 305 304 305 306 307 310 312 313 314 314 313 312 310 307 306 304 303 302 302 302 303 302 301 299 297 295 293 290 289 288 287 286 285 284 283 282 281 279 278 277 276 275 274 273 272 271
309 309 308 308 308 309 311 311 310 308 307 307 306 306 306 307 309 309 308 306 307 309 310 310 310 310 312 313 314 315 314 312 310 309 307 305 305 305 305 304 303 303 304 306 307 310 313 314 314 314 314 312 310 308 307 306 306 306 306 306 304 302 299 296 294 292 290 289 288 287 287 286 285 284 284 282 281 280 278 277 276 275 274 273 271 270
308 308 307 306 306 306 307 306 306 305 304 305 306 306 307 308 309 310 308 307 308 310 311 310 310 310 310 311 312 313 312 309 306 304 303 302 303 303 304 303 303 303 304 305 307 310 314 314 314 314 314 312 311 310 310 310 310 309 308 306 302 299 296 294 292 291 290 289 288 288 287 286 286 285 284 283 281 280 279 278 276 275 274 273 272 271
305 305 304 304 304 303 303 303 303 303 304 306 307 308 308 308 308 309 308 307 308 310 311 310 310 310 309 309 310 311 310 307 304 302 302 301 302 302 303 303 302 302 304 305 307 310 313 314 315 315 314 313 313 313 312 312 312 311 309 305 301 299 296 294 293 292 291 290 289 288 287 286 285 284 283 282 281 280 279 278 277 276 274 274 272 271
302 303 303 303 302 302 302 302 302 303 304 305 306 307 307 307 307 307 306 307 308 309 308 308 307 307 306 308 309 310 309 306 303 302 301 300 301 302 302 302 301 301 302 305 307 310 312 314 315 315 315 315 314 314 314 313 312 310 308 306 303 300 298 297 295 293 292 291 290 288 287 286 285 284 283 283 282 281 279 278 277 276 275 274 273 272
300 301 301 301 300 300 301 302 302 303 304 305 306 307 307 307 307 307 307 307 306 305 305 305 303 302 302 304 306 307 307 305 303 302 301 300 301 302 303 302 301 301 302 305 307 310 311 313 315 316 316 316 315 314 314 313 312 310 309 307 305 302 300 298 296 294 293 291 290 289 288 286 285 284 283 282 281 280 279 278 277 276 276 275 274 273
299 299 299 298 298 298 300 300 301 302 304 306 307 308 308 308 308 308 307 306 305 303 301 300 299 299 299 300 301 303 304 303 302 302 301 300 300 302 304 303 302 302 303 305 307 310 311 313 315 316 316 316 315 315 314 313 312 311 310 308 306 303 301 298 296 295 293 291 290 289 288 286 285 284 283 283 282 281 280 279 278 277 276 276 275 274
298 298 296 297 297 298 299 299 302 304 306 308 309 309 308 307 307 306 305 305 303 301 300 299 298 298 298 299 299 300 301 302 302 301 301 300 300 301 303 304 304 303 304 306 308 310 312 314 316 316 317 316 316 315 315 314 313 312 310 308 306 304 301 299 297 295 294 292 291 290 289 288 287 286 286 285 285 284 283 281 279 278 276 275 274 273
297 296 297 298 299 299 298 300 304 307 310 312 312 310 307 306 305 305 304 303 302 300 300 299 298 297 297 297 297 298 300 302 302 301 301 300 300 301 304 305 305 304 304 306 309 312 313 314 315 316 316 316 316 316 316 315 314 313 311 308 306 304 301 300 298 296 295 294 293 292 291 290 290 289 288 287 286 285 283 281 279 277 276 275 274 273
296 296 299 301 300 300 299 303 308 311 314 315 313 310 308 307 305 304 304 303 302 301 299 297 296 295 295 295 296 298 300 302 302 301 301 300 300 302 306 306 305 303 302 305 309 312 313 313 313 314 315 316 317 316 316 315 314 313 311 309 307 305 303 301 300 298 297 296 295 294 293 292 291 290 288 286 285 283 281 279 278 276 275 274 274 273
298 300 302 303 303 303 305 308 311 314 316 316 313 311 310 309 307 305 304 302 300 299 297 296 295 296 296 296 297 300 302 304 305 303 301 297 297 301 306 306 304 301 299 303 307 310 310 310 310 312 314 315 316 316 315 314 314 313 312 310 308 307 306 304 303 301 299 298 297 295 294 292 290 288 286 285 284 282 281 280 278 277 276 275 274 274
300 301 303 305 307 309 310 311 313 313 314 313 311 309 308 306 304 301 299 297 296 296 297 297 298 298 298 299 301 303 306 308 308 305 300 296 296 299 303 305 303 300 300 303 306 307 307 307 308 309 311 312 314 314 315 314 314 313 312 311 310 309 309 307 305 303 301 299 297 295 293 291 289 288 287 286 285 284 283 281 280 278 277 277 276 276
301 302 305 307 309 309 308 307 306 305 304 302 300 298 297 295 294 292 292 293 294 297 299 300 301 300 301 302 304 306 309 311 310 305 300 297 297 299 302 303 302 300 301 304 306 306 304 304 304 306 307 309 311 313 314 315 315 314 313 312 312 312 310 309 306 304 301 299 297 295 294 292 291 290 289 288 286 285 284 283 282 281 280 279 278 277
303 303 304 304 303 301 299 297 296 294 293 292 290 290 290 290 291 292 293 295 297 300 302 302 301 301 302 304 305 306 310 312 310 305 301 298 298 299 302 304 303 301 302 304 305 304 302 301 301 303 305 308 311 314 315 316 317 316 315 314 313 311 310 308 306 304 303 301 300 298 297 295 294 292 290 289 287 286 285 284 284 283 282 280 279 277
305 304 302 300 299 298 297 295 295 294 294 292 290 290 291 291 293 295 296 298 300 301 301 301 300 301 303 303 304 305 308 310 308 305 303 300 297 297 300 304 304 303 302 303 303 302 301 300 300 302 305 309 313 315 316 316 316 316 314 313 311 310 310 309 308 307 306 305 304 302 299 297 295 293 292 290 289 287 286 285 284 283 281 280 279 277
307 306 304 303 302 301 300 300 300 299 298 296 295 295 295 296 296 296 296 298 300 300 300 299 299 300 301 301 302 304 307 308 308 308 306 301 296 295 299 303 304 303 302 303 303 302 301 300 301 303 306 309 312 313 314 314 313 313 312 312 312 312 312 311 311 310 309 307 306 303 301 299 297 295 293 291 290 288 286 285 284 283 281 280 279 277
309 308 307 306 305 304 303 302 301 300 300 301 303 304 303 301 299 297 298 302 304 303 300 299 299 299 299 300 302 303 305 306 309 311 308 301 296 296 301 303 303 303 304 304 304 304 302 300 300 302 304 307 308 308 310 311 312 312 313 314 314 315 314 314 312 311 310 308 306 304 302 300 299 296 294 292 290 288 286 285 284 283 282 281 279 277
309 308 307 306 305 304 303 302 302 303 305 309 312 313 310 307 304 303 306 308 308 304 301 299 299 298 299 300 301 302 303 306 311 312 308 301 298 299 302 303 304 304 305 305 305 304 302 301 301 300 301 303 304 305 307 309 311 313 314 315 315 316 315 314 313 312 310 308 306 305 303 302 300 298 296 294 292 290 288 286 285 284 283 282 280 278
305 305 304 305 305 304 304 305 307 311 315 317 318 317 315 313 311 310 310 309 308 304 301 299 298 298 297 297 297 296 298 305 312 314 309 303 300 300 303 303 303 304 304 303 302 301 302 302 302 302 302 302 303 304 306 308 310 312 313 313 313 314 314 313 312 310 309 308 307 306 305 304 303 301 300 298 296 294 292 290 288 286 284 282 281 280
302 303 303 304 305 307 310 314 317 320 321 321 321 320 318 317 315 313 311 308 306 303 300 299 298 297 296 294 291 290 294 303 311 315 311 304 300 299 301 301 301 302 303 301 298 296 296 298 300 302 302 301 301 303 305 306 308 309 310 310 310 311 312 312 310 309 308 309 308 308 308 307 306 305 304 303 301 299 296 294 291 288 285 284 283 282
302 303 304 307 311 316 321 323 324 324 324 323 323 322 321 319 317 315 312 309 306 302 300 298 297 297 297 295 293 292 295 303 310 314 310 303 298 298 299 299 300 300 301 301 298 294 291 293 296 299 301 300 300 300 302 304 305 306 307 307 307 309 310 310 309 308 308 309 310 310 310 310 310 309 308 307 305 303 302 299 295 291 288 286 285 285
305 307 310 316 322 327 328 328 327 327 327 326 324 323 321 320 317 315 312 310 306 303 300 298 297 296 296 296 295 296 299 304 310 313 309 303 298 297 299 298 299 299 300 299 298 296 293 293 294 296 299 299 299 299 300 301 303 305 306 305 304 305 308 309 309 308 309 310 311 311 312 313 313 313 312 311 309 308 306 303 299 295 291 288 286 285
310 315 321 325 328 329 329 330 330 329 328 327 325 323 321 320 318 315 313 311 308 305 302 300 298 297 295 295 294 296 300 307 313 314 310 304 301 299 298 297 297 298 298 298 297 296 295 294 294 295 297 298 299 299 299 300 302 304 304 304 303 303 305 307 308 308 309 310 311 312 313 314 314 314 314 313 312 310 308 305 301 297 293 288 284 281
319 324 327 328 329 329 329 329 329 329 329 327 326 324 322 320 319 317 315 313 311 309 307 305 304 302 300 297 295 297 301 309 313 314 312 308 304 301 298 296 297 297 297 296 296 296 295 295 296 296 296 296 297 299 300 302 303 303 303 303 303 304 306 307 308 308 308 309 310 311 313 313 313 313 313 312 311 310 307 303 300 296 293 289 283 278
326 329 329 328 328 328 328 328 328 328 328 328 327 325 323 322 321 320 319 318 317 316 314 313 312 310 308 305 303 302 305 310 313 314 314 312 308 303 298 298 298 298 297 295 296 296 296 295 296 296 295 294 294 296 299 302 303 303 302 303 304 305 306 308 309 309 308 307 308 309 310 310 310 310 310 310 310 309 306 303 300 298 296 293 289 285
329 328 329 328 328 328 327 327 327 327 327 327 326 325 324 323 323 323 323 322 322 321 319 318 316 315 313 311 309 308 309 311 313 315 316 315 312 307 301 299 300 301 300 298 298 297 296 294 293 294 294 294 294 295 298 300 301 301 303 304 305 305 305 307 308 308 306 305 305 306 307 307 307 307 307 308 308 308 307 306 304 303 302 300 297 294
327 327 328 328 328 327 326 326 326 326 326 326 325 325 324 325 325 325 325 325 324 323 321 319 318 316 314 313 312 311 312 313 315 316 318 317 316 312 306 302 301 302 304 303 301 299 296 293 291 291 292 294 295 297 298 299 299 300 302 304 305 305 306 307 306 305 304 303 303 304 305 306 306 306 306 307 307 306 306 307 307 306 305 304 302 300
326 326 327 327 327 326 325 324 325 326 325 325 325 325 326 326 327 328 327 326 325 324 323 321 319 317 315 314 314 314 315 316 317 319 319 319 318 316 312 307 304 304 306 305 303 300 297 294 293 292 291 292 294 296 297 298 299 300 301 300 300 302 305 306 306 305 304 303 303 303 304 305 306 305 305 305 305 304 304 304 305 305 304 303 301 299
324 324 326 326 325 325 325 325 325 325 325 324 325 326 327 329 330 330 329 328 327 326 324 323 322 320 318 316 316 316 318 319 320 321 321 321 320 318 314 310 308 307 306 305 303 301 299 296 294 294 294 294 294 295 296 297 298 298 298 296 296 299 304 306 306 306 306 305 304 303 303 303 303 303 303 303 303 303 303 303 303 303 302 301 298 296
323 323 324 324 324 324 324 324 324 324 324 324 325 327 329 330 331 330 329 328 328 327 327 327 326 324 321 320 320 320 321 322 322 322 322 322 321 319 316 313 311 309 307 305 303 301 300 298 296 295 294 295 295 294 294 296 298 299 297 296 297 300 303 305 307 307 305 303 303 302 301 301 301 301 302 303 303 303 303 302 301 300 299 298 297 296
323 323 323 323 323 324 324 324 324 324 324 324 325 326 328 330 330 329 327 326 325 326 327 328 327 324 322 322 322 323 324 324 323 323 323 322 321 320 317 315 313 312 309 305 302 301 302 300 297 295 295 296 295 293 292 294 297 299 298 298 298 297 296 300 305 307 304 303 302 301 301 301 302 303 303 303 303 302 302 301 300 299 298 297 296 295
325 324 324 323 324 324 324 324 324 324 324 324 325 326 328 329 330 329 327 325 325 327 328 328 327 325 321 319 320 323 324 325 325 324 324 323 323 321 319 317 316 314 311 306 302 301 302 300 298 297 297 297 295 293 293 293 295 297 299 301 299 295 292 296 301 303 303 302 302 302 303 303 304 304 304 302 301 301 300 300 299 299 298 297 296 294
326 326 326 325 325 324 324 324 324 324 325 325 326 328 329 330 331 330 328 327 327 327 328 328 326 322 317 317 319 322 323 325 326 326 325 325 324 323 321 319 317 316 313 309 306 303 301 298 298 300 301 299 296 293 292 292 294 296 298 301 300 298 297 299 300 300 299 300 301 303 304 305 304 302 300 299 298 298 298 297 297 296 296 296 295 294
329 328 327 326 326 326 326 326 326 326 327 328 329 331 332 333 333 332 330 328 327 327 328 328 324 319 316 317 319 321 322 324 325 327 327 327 327 326 325 323 320 318 315 312 309 307 303 300 300 301 301 299 297 294 293 293 293 294 296 299 300 299 299 299 299 298 298 298 300 302 304 305 302 298 295 295 295 295 295 294 293 293 293 293 293 292
330 329 328 327 327 328 329 329 330 331 332 333 333 334 334 334 334 333 331 330 329 327 327 327 324 320 317 318 319 319 319 320 322 324 326 328 328 328 327 326 324 321 318 315 312 309 306 304 303 301 298 295 293 294 296 297 295 294 295 297 298 297 296 297 298 300 300 299 299 301 304 302 298 294 293 294 294 294 293 292 291 290 290 290 290 291
330 328 328 328 329 330 332 333 334 335 337 337 337 336 335 335 334 332 331 331 330 329 327 326 324 322 320 320 320 320 318 317 319 321 323 325 327 329 328 327 326 324 322 319 316 312 309 307 305 302 298 293 290 291 295 298 298 297 296 297 296 294 294 296 298 300 300 299 299 300 301 298 295 294 294 294 293 292 291 290 290 290 289 289 289 289
329 327 328 329 331 333 335 336 337 339 340 340 339 337 336 336 335 333 332 331 331 330 328 326 324 322 321 321 322 322 320 318 318 320 321 323 324 325 326 327 326 325 323 321 319 316 314 311 309 305 300 294 290 290 293 297 298 298 297 296 294 293 293 294 296 298 298 297 298 298 298 296 295 295 295 293 291 290 290 290 290 290 290 289 289 289
328 327 328 329 331 334 336 338 339 340 341 341 339 338 337 336 336 335 334 333 332 331 329 327 325 322 320 321 322 323 321 319 319 319 320 322 322 323 323 324 324 323 321 319 318 316 314 312 310 307 304 298 292 289 290 293 295 296 295 293 292 291 291 292 293 295 295 295 296 296 296 296 296 296 294 292 290 290 290 290 290 290 290 290 290 290
327 327 328 330 332 334 336 338 340 341 341 340 339 338 338 337 337 337 336 335 334 332 331 329 327 323 321 321 322 322 320 319 318 318 320 321 322 321 321 321 321 319 317 314 312 311 309 308 306 305 305 302 297 291 288 289 291 291 290 290 290 290 289 290 291 293 294 295 295 296 296 296 296 295 294 292 290 289 290 290 289 290 291 291 291 291
Height
1465 1464 1463 1462 1461 1460 1458 1458 1457 1456 1454 1453 1453 1452 1451 1450 1449 1448 1447 1446 1445 1444 1443 1441 1440 1439 1438 1438 1437 1436 1435 1434 1433 1433 1432 1431 1430 1429 1429 1428 1428 1427 1426 1425 1424 1423 1422 1422 1421 1420 1419 1418 1418 1417 1416 1415 1415 1414 1413 1413 1412 1412 1411 1410 1410 1409 1408 1408 1407 1407 1406 1405 1405 1404 1404 1403 1403 1403 1402 1402 1402 1401 1401 1401 1401 1400
1463 1462 1461 1460 1459 1458 1456 1456 1456 1455 1453 1452 1451 1450 1449 1448 1447 1446 1445 1444 1443 1442 1441 1439 1438 1437 1436 1435 1435 1434 1433 1432 1431 1431 1430 1429 1428 1428 1427 1426 1425 1424 1423 1422 1422 1421 1420 1419 1418 1417 1416 1416 1415 1414 1414 1413 1412 1412 1411 1410 1410 1409 1408 1408 1407 1406 1406 1405 1404 1404 1403 1402 1402 1401 1401 1400 1400 1399 1399 1399 1399 1399 1398 1398 1398 1398
1461 1460 1459 1458 1458 1457 1455 1453 1453 1453 1452 1450 1449 1448 1447 1446 1444 1443 1442 1441 1440 1440 1439 1438 1436 1435 1434 1433 1433 1432 1431 1430 1429 1428 1428 1427 1426 1425 1424 1423 1423 1422 1421 1420 1419 1418 1417 1416 1416 1415 1414 1413 1413 1412 1411 1411 1410 1409 1408 1408 1407 1406 1406 1405 1404 1403 1403 1402 1401 1401 1400 1399 1399 1398 1398 1398 1397 1397 1397 1396 1396 1396 1396 1396 1395 1395
1460 1458 1457 1456 1456 1454 1453 1452 1451 1451 1450 1449 1447 1446 1445 1444 1443 1441 1440 1439 1438 1437 1437 1436 1435 1433 1432 1431 1431 1430 1429 1428 1427 1427 1426 1425 1424 1423 1422 1421 1420 1419 1418 1418 1417 1416 1415 1414 1413 1413 1412 1411 1410 1410 1409 1408 1408 1407 1406 1405 1404 1404 1403 1402 1401 1400 1400 1399 1398 1398 1397 1396 1396 1395 1395 1394 1394 1394 1394 1393 1393 1393 1393 1393 1393 1392
1459 1458 1456 1455 1454 1453 1452 1451 1450 1449 1448 1447 1446 1444 1443 1443 1441 1440 1438 1438 1437 1435 1434 1433 1433 1432 1431 1429 1428 1428 1427 1426 1425 1425 1424 1423 1422 1421 1420 1419 1418 1417 1416 1415 1414 1413 1413 1412 1411 1410 1409 1409 1408 1407 1407 1406 1405 1404 1403 1403 1402 1401 1400 1399 1398 1398 1397 1396 1395 1394 1394 1393 1393 1392 1392 1392 1391 1391 1391 1390 1390 1390 1390 1389 1389 1389
1457 1456 1455 1454 1453 1451 1450 1449 1448 1448 1446 1445 1444 1443 1442 1441 1440 1438 1437 1436 1435 1434 1433 1432 1431 1430 1429 1428 1427 1426 1425 1424 1423 1423 1421 1420 1419 1418 1417 1416 1415 1414 1413 1413 1412 1411 1410 1409 1409 1408 1407 1406 1406 1405 1404 1403 1403 1402 1401 1400 1399 1398 1397 1396 1395 1394 1394 1393 1392 1392 1391 1390 1390 1389 1389 1388 1388 1388 1388 1387 1387 1387 1387 1386 1386 1386
1455 1455 1454 1453 1452 1450 1449 1448 1447 1447 1445 1443 1442 1441 1440 1439 1438 1437 1436 1435 1433 1432 1431 1430 1429 1428 1427 1426 1425 1424 1423 1422 1421 1420 1419 1418 1417 1416 1415 1414 1413 1412 1411 1410 1410 1409 1408 1407 1406 1406 1405 1404 1403 1402 1401 1400 1399 1398 1397 1396 1395 1394 1394 1393 1392 1392 1391 1390 1389 1389 1388 1388 1387 1387 1386 1386 1385 1385 1385 1384 1384 1384 1384 1384 1383 1383
1454 1453 1453 1452 1451 1449 1448 1447 1446 1446 1444 1443 1441 1439 1437 1437 1436 1435 1434 1433 1432 1431 1429 1428 1427 1426 1425 1424 1423 1422 1421 1420 1418 1417 1416 1415 1414 1413 1413 1412 1411 1410 1409 1408 1408 1407 1406 1405 1404 1403 1402 1401 1400 1399 1398 1397 1396 1395 1394 1393 1392 1391 1391 1390 1389 1388 1388 1387 1387 1386 1385 1385 1384 1384 1383 1383 1383 1382 1382 1382 1382 1381 1381 1381 1381 1381
1454 1452 1451 1451 1450 1448 1446 1444 1444 1444 1443 1442 1440 1438 1436 1434 1433 1433 1432 1431 1430 1429 1428 1427 1425 1423 1423 1422 1421 1420 1418 1418 1416 1415 1414 1413 1412 1411 1410 1409 1408 1408 1407 1406 1405 1404 1403 1403 1402 1400 1399 1398 1397 1396 1395 1394 1393 1392 1391 1390 1389 1388 1388 1387 1386 1386 1385 1384 1384 1383 1383 1382 1382 1382 1381 1381 1380 1380 1379 1379 1379 1379 1378 1378 1378 1378
1453 1452 1450 1449 1448 1448 1446 1443 1442 1442 1442 1441 1439 1438 1436 1434 1432 1431 1429 1429 1428 1428 1427 1425 1423 1421 1420 1419 1418 1418 1416 1415 1414 1413 1413 1411 1410 1409 1408 1408 1407 1405 1405 1404 1403 1402 1401 1400 1399 1398 1396 1395 1394 1393 1392 1391 1390 1389 1388 1388 1387 1386 1385 1384 1384 1383 1383 1382 1381 1381 1380 1380 1379 1379 1378 1378 1378 1377 1377 1377 1376 1376 1376 1375 1375 1375
1452 1451 1449 1448 1446 1446 1445 1443 1441 1440 1440 1439 1438 1437 1436 1435 1433 1430 1428 1426 1425 1425 1424 1423 1422 1420 1418 1416 1416 1415 1414 1413 1412 1411 1410 1409 1408 1408 1407 1406 1405 1403 1403 1402 1401 1399 1398 1397 1396 1394 1393 1392 1391 1390 1389 1388 1387 1387 1386 1385 1384 1383 1383 1382 1381 1381 1380 1380 1379 1379 1378 1378 1377 1377 1376 1376 1375 1375 1374 1374 1373 1373 1373 1373 1372 1372
1451 1449 1448 1446 1445 1444 1443 1442 1440 1439 1439 1438 1437 1435 1434 1434 1433 1431 1428 1425 1423 1422 1421 1420 1419 1418 1417 1415 1414 1413 1412 1411 1409 1408 1408 1407 1406 1405 1404 1403 1403 1401 1400 1399 1398 1397 1395 1394 1393 1392 1391 1389 1388 1388 1387 1386 1385 1384 1383 1382 1382 1381 1380 1379 1379 1378 1378 1378 1377 1377 1376 1375 1375 1374 1374 1373 1373 1372 1372 1371 1371 1370 1370 1370 1369 1369
1449 1448 1447 1445 1444 1443 1442 1441 1440 1439 1438 1437 1436 1434 1432 1431 1430 1429 1427 1425 1423 1421 1420 1418 1417 1416 1415 1414 1413 1412 1410 1409 1408 1407 1406 1405 1405 1404 1403 1402 1400 1399 1398 1396 1394 1393 1393 1391 1390 1389 1388 1387 1386 1385 1384 1383 1383 1382 1381 1380 1379 1378 1378 1378 1377 1377 1376 1376 1375 1374 1374 1373 1372 1372 1371 1371 1370 1369 1369 1368 1368 1368 1367 1367 1367 1366
1448 1447 1446 1445 1443 1443 1442 1440 1439 1438 1437 1436 1434 1433 1431 1429 1428 1427 1426 1423 1422 1421 1419 1417 1415 1414 1413 1413 1412 1411 1410 1408 1407 1405 1404 1404 1403 1403 1401 1400 1398 1397 1395 1393 1392 1391 1390 1389 1388 1387 1386 1385 1384 1383 1382 1381 1380 1379 1378 1378 1377 1376 1376 1375 1375 1374 1374 1373 1373 1372 1371 1370 1370 1369 1368 1368 1367 1367 1366 1365 1365 1364 1364 1364 1363 1363
1447 1446 1445 1443 1443 1442 1441 1439 1438 1436 1435 1434 1433 1431 1429 1428 1427 1426 1424 1422 1421 1419 1418 1416 1414 1412 1412 1412 1411 1410 1409 1408 1406 1404 1402 1401 1401 1401 1400 1398 1396 1394 1393 1391 1390 1388 1388 1387 1386 1384 1383 1383 1382 1381 1380 1378 1378 1377 1376 1375 1375 1374 1373 1373 1372 1372 1371 1370 1370 1369 1368 1368 1367 1366 1366 1365 1364 1364 1363 1363 1362 1362 1361 1361 1360 1360
1447 1445 1444 1442 1441 1440 1439 1438 1437 1435 1433 1432 1431 1430 1428 1427 1426 1425 1423 1422 1419 1418 1417 1415 1412 1410 1409 1410 1410 1410 1408 1406 1404 1403 1401 1398 1398 1398 1398 1396 1393 1391 1390 1389 1388 1386 1385 1385 1384 1383 1381 1380 1379 1378 1378 1377 1376 1375 1374 1373 1373 1372 1371 1370 1370 1369 1368 1368 1367 1367 1366 1365 1364 1363 1363 1362 1361 1361 1360 1359 1359 1358 1358 1358 1357 1357
1445 1444 1443 1441 1439 1438 1437 1436 1435 1433 1432 1431 1430 1429 1428 1426 1425 1423 1422 1421 1419 1417 1416 1414 1412 1409 1407 1406 1407 1408 1407 1405 1403 1401 1399 1396 1395 1395 1396 1394 1391 1389 1388 1386 1385 1384 1383 1383 1382 1380 1379 1378 1378 1376 1375 1374 1373 1373 1372 1371 1370 1369 1368 1368 1367 1366 1366 1365 1364 1363 1363 1362 1361 1361 1360 1359 1358 1358 1357 1356 1356 1355 1355 1355 1354 1354
1444 1443 1441 1440 1438 1437 1435 1434 1433 1432 1431 1429 1428 1427 1426 1425 1424 1422 1421 1419 1418 1416 1414 1413 1412 1410 1407 1404 1404 1405 1406 1404 1401 1399 1397 1394 1393 1392 1393 1392 1389 1387 1385 1384 1383 1382 1381 1380 1379 1378 1377 1376 1375 1374 1373 1373 1372 1370 1369 1368 1368 1367 1366 1365 1364 1363 1363 1362 1361 1361 1360 1359 1358 1358 1357 1356 1355 1355 1354 1353 1353 1353 1352 1352 1351 1351
1442 1441 1440 1438 1437 1435 1434 1433 1432 1430 1429 1428 1427 1426 1424 1423 1422 1421 1419 1418 1417 1415 1413 1412 1410 1409 1407 1404 1403 1403 1403 1402 1400 1397 1394 1392 1389 1389 1389 1388 1387 1384 1383 1382 1381 1380 1379 1378 1377 1376 1375 1374 1373 1372 1371 1370 1369 1368 1367 1366 1365 1364 1363 1363 1362 1361 1360 1359 1358 1358 1357 1356 1355 1355 1354 1353 1353 1352 1351 1350 1350 1349 1349 1348 1348 1348
1440 1439 1438 1437 1435 1433 1432 1431 1430 1429 1428 1427 1426 1425 1423 1421 1420 1419 1418 1416 1415 1414 1413 1411 1409 1407 1406 1403 1402 1401 1401 1400 1398 1395 1393 1390 1387 1386 1387 1386 1384 1382 1380 1379 1378 1378 1377 1376 1375 1374 1373 1372 1371 1370 1369 1368 1367 1366 1365 1363 1363 1362 1361 1360 1359 1358 1357 1356 1355 1355 1354 1353 1352 1352 1351 1350 1350 1349 1348 1348 1347 1347 1346 1346 1345 1345
1438 1437 1436 1435 1434 1432 1430 1429 1428 1428 1427 1426 1425 1423 1422 1420 1418 1417 1416 1415 1414 1413 1412 1410 1408 1406 1404 1403 1400 1398 1398 1398 1396 1393 1390 1388 1385 1384 1384 1383 1382 1380 1378 1377 1376 1375 1374 1373 1372 1371 1370 1369 1368 1367 1366 1365 1364 1363 1362 1361 1360 1359 1358 1357 1356 1355 1354 1353 1353 1352 1351 1350 1349 1348 1348 1347 1347 1346 1345 1344 1344 1343 1343 1342 1342 1341
1437 1435 1434 1433 1433 1431 1429 1428 1427 1427 1426 1425 1423 1422 1420 1418 1417 1415 1414 1414 1413 1411 1410 1408 1406 1404 1403 1401 1398 1397 1397 1397 1395 1393 1389 1386 1383 1381 1382 1382 1380 1378 1376 1374 1373 1373 1372 1371 1370 1368 1368 1367 1366 1365 1363 1363 1361 1360 1359 1358 1357 1356 1355 1354 1353 1352 1351 1350 1349 1349 1348 1347 1347 1346 1345 1344 1343 1343 1342 1341 1340 1340 1339 1339 1338 1338
1435 1433 1432 1431 1431 1429 1428 1427 1426 1425 1424 1423 1422 1421 1419 1418 1417 1415 1414 1413 1411 1409 1407 1405 1403 1402 1400 1399 1397 1395 1395 1395 1393 1392 1389 1385 1382 1379 1380 1380 1378 1376 1374 1373 1372 1371 1370 1368 1367 1366 1365 1364 1363 1362 1361 1360 1359 1358 1357 1355 1354 1353 1352 1351 1350 1349 1348 1348 1347 1346 1345 1344 1343 1343 1342 1341 1340 1339 1338 1338 1337 1337 1336 1335 1335 1334
1433 1432 1431 1430 1429 1428 1427 1426 1424 1424 1423 1423 1422 1420 1419 1418 1417 1415 1413 1411 1409 1407 1405 1403 1401 1399 1398 1396 1395 1393 1393 1393 1392 1390 1388 1385 1381 1379 1378 1378 1377 1375 1372 1371 1370 1369 1368 1366 1364 1363 1362 1361 1360 1359 1358 1357 1356 1355 1354 1353 1351 1350 1349 1348 1347 1346 1346 1345 1344 1343 1342 1341 1340 1339 1338 1338 1337 1336 1335 1334 1334 1333 1333 1332 1332 1331
1432 1431 1429 1428 1428 1427 1426 1425 1425 1424 1424 1423 1423 1421 1418 1416 1414 1412 1410 1408 1407 1405 1403 1402 1399 1397 1395 1394 1393 1391 1390 1390 1390 1389 1387 1384 1380 1378 1377 1377 1376 1373 1370 1368 1368 1367 1366 1363 1362 1361 1360 1358 1358 1357 1356 1354 1353 1352 1351 1350 1348 1348 1346 1345 1345 1344 1343 1342 1341 1340 1339 1338 1337 1336 1335 1334 1333 1333 1332 1331 1331 1330 1330 1329 1328 1328
1431 1430 1429 1428 1427 1427 1426 1425 1425 1424 1423 1421 1419 1417 1414 1413 1411 1409 1408 1406 1405 1404 1403 1400 1398 1396 1394 1393 1391 1389 1388 1388 1388 1387 1386 1383 1379 1376 1375 1375 1374 1372 1369 1367 1366 1365 1364 1362 1360 1358 1357 1356 1355 1354 1353 1352 1350 1349 1348 1347 1346 1345 1344 1343 1342 1341 1340 1339 1338 1337 1335 1334 1333 1333 1332 1331 1330 1330 1329 1328 1328 1327 1327 1326 1325 1324
1429 1428 1428 1427 1426 1425 1424 1423 1421 1420 1419 1418 1417 1415 1413 1411 1409 1408 1406 1405 1404 1403 1402 1399 1397 1394 1393 1392 1390 1388 1387 1386 1386 1385 1384 1382 1379 1375 1373 1373 1372 1370 1368 1365 1364 1363 1362 1360 1357 1355 1354 1353 1351 1350 1349 1348 1348 1346 1345 1344 1343 1343 1341 1340 1339 1338 1337 1335 1334 1333 1332 1331 1330 1330 1329 1328 1327 1327 1326 1326 1325 1324 1324 1323 1322 1321
1427 1426 1425 1424 1423 1422 1421 1420 1418 1417 1416 1415 1414 1413 1411 1410 1408 1407 1405 1404 1403 1402 1400 1398 1396 1394 1392 1390 1388 1387 1385 1384 1384 1383 1383 1381 1378 1374 1372 1372 1371 1369 1367 1363 1361 1360 1359 1357 1355 1353 1351 1350 1349 1348 1347 1346 1345 1344 1343 1342 1341 1339 1338 1337 1336 1335 1333 1332 1331 1330 1329 1328 1328 1327 1326 1325 1324 1324 1323 1323 1322 1322 1321 1320 1319 1317
1425 1423 1423 1422 1421 1419 1418 1417 1416 1414 1413 1412 1411 1410 1409 1408 1407 1405 1403 1402 1402 1400 1398 1397 1395 1393 1391 1389 1387 1385 1383 1383 1382 1382 1381 1379 1376 1373 1371 1371 1369 1368 1366 1362 1358 1356 1355 1354 1353 1352 1350 1348 1347 1346 1344 1343 1343 1341 1340 1339 1338 1336 1335 1334 1333 1332 1330 1329 1328 1327 1326 1325 1324 1324 1323 1322 1321 1321 1320 1320 1319 1318 1318 1317 1315 1314
1423 1421 1420 1419 1418 1417 1416 1414 1413 1412 1411 1410 1409 1408 1407 1406 1405 1403 1402 1401 1400 1399 1397 1395 1394 1393 1391 1388 1386 1383 1381 1380 1381 1381 1380 1378 1374 1371 1370 1369 1368 1366 1365 1362 1358 1353 1351 1350 1351 1350 1348 1347 1345 1344 1342 1341 1339 1338 1337 1335 1334 1333 1332 1331 1330 1328 1327 1326 1325 1324 1323 1322 1321 1321 1320 1319 1318 1318 1317 1317 1316 1316 1314 1313 1312 1311
1421 1420 1418 1418 1417 1415 1414 1413 1411 1410 1408 1408 1407 1406 1405 1403 1403 1401 1400 1399 1398 1398 1396 1394 1393 1391 1390 1388 1386 1383 1379 1377 1378 1379 1378 1376 1373 1370 1368 1367 1366 1364 1364 1363 1360 1354 1349 1346 1346 1347 1347 1345 1343 1341 1340 1338 1337 1335 1334 1332 1331 1329 1328 1328 1327 1325 1324 1323 1322 1321 1320 1319 1318 1317 1317 1316 1315 1314 1314 1313 1313 1313 1312 1310 1309 1308
1419 1418 1417 1416 1415 1413 1412 1410 1409 1408 1406 1405 1404 1403 1403 1402 1401 1400 1399 1398 1397 1396 1395 1393 1391 1390 1388 1388 1386 1382 1378 1375 1376 1377 1377 1375 1371 1368 1367 1366 1364 1363 1362 1362 1360 1357 1352 1345 1342 1342 1343 1342 1341 1339 1337 1336 1335 1333 1332 1330 1328 1326 1325 1325 1324 1323 1321 1320 1319 1318 1317 1316 1315 1314 1313 1313 1312 1311 1311 1310 1310 1310 1309 1308 1306 1305
1418 1417 1415 1414 1413 1411 1409 1408 1407 1406 1405 1404 1403 1402 1401 1400 1399 1398 1397 1396 1395 1394 1393 1392 1390 1388 1386 1385 1383 1380 1377 1374 1374 1375 1375 1373 1370 1368 1366 1365 1363 1361 1359 1359 1358 1356 1353 1347 1343 1340 1339 1339 1338 1337 1335 1334 1333 1331 1330 1328 1326 1323 1322 1322 1321 1319 1318 1317 1315 1314 1313 1312 1312 1311 1310 1309 1309 1308 1308 1307 1307 1307 1306 1305 1304 1302
1416 1415 1413 1412 1410 1409 1408 1407 1406 1404 1403 1402 1401 1400 1399 1398 1398 1397 1396 1395 1394 1393 1392 1390 1388 1387 1385 1383 1380 1377 1374 1373 1373 1374 1374 1372 1370 1367 1364 1363 1362 1360 1358 1356 1355 1353 1351 1347 1344 1341 1338 1335 1334 1334 1333 1332 1330 1328 1327 1326 1324 1322 1320 1319 1318 1316 1315 1313 1312 1310 1309 1308 1308 1307 1306 1306 1305 1305 1304 1304 1303 1303 1303 1303 1302 1300
1414 1413 1411 1410 1408 1407 1406 1405 1404 1403 1402 1401 1400 1399 1398 1397 1396 1395 1394 1393 1392 1391 1389 1388 1387 1385 1384 1382 1379 1375 1372 1371 1371 1372 1372 1371 1368 1366 1363 1361 1360 1358 1357 1354 1352 1351 1348 1345 1343 1341 1338 1334 1331 1330 1330 1330 1328 1326 1325 1323 1322 1320 1318 1316 1315 1313 1312 1310 1309 1307 1306 1305 1304 1304 1303 1302 1302 1301 1301 1300 1300 1300 1300 1300 1299 1299
1412 1411 1409 1408 1407 1406 1405 1404 1403 1402 1401 1400 1398 1397 1396 1395 1394 1393 1392 1391 1389 1388 1387 1386 1385 1383 1382 1380 1378 1374 1371 1369 1369 1369 1369 1368 1367 1365 1362 1359 1358 1357 1356 1353 1350 1348 1346 1343 1340 1339 1337 1334 1330 1327 1326 1326 1326 1324 1322 1320 1319 1317 1315 1314 1313 1311 1309 1308 1306 1304 1303 1303 1302 1301 1300 1299 1299 1298 1298 1297 1297 1297 1297 1297 1297 1297
1411 1409 1408 1407 1406 1405 1404 1403 1401 1400 1399 1398 1397 1396 1394 1393 1392 1391 1390 1388 1387 1386 1385 1383 1382 1381 1379 1378 1376 1373 1370 1368 1367 1367 1366 1366 1365 1363 1361 1358 1356 1355 1354 1352 1349 1347 1345 1342 1338 1336 1335 1333 1330 1327 1324 1323 1322 1321 1319 1317 1316 1314 1313 1311 1310 1309 1307 1305 1303 1302 1301 1300 1299 1298 1297 1296 1296 1295 1294 1294 1294 1293 1293 1293 1293 1293
1409 1408 1407 1406 1405 1404 1403 1401 1400 1399 1398 1397 1395 1394 1393 1392 1390 1389 1388 1387 1385 1384 1383 1381 1379 1378 1377 1375 1373 1371 1369 1367 1365 1364 1364 1363 1362 1361 1359 1356 1354 1353 1352 1350 1348 1346 1343 1341 1338 1334 1332 1330 1328 1326 1324 1322 1319 1317 1315 1314 1313 1312 1310 1308 1308 1306 1305 1303 1302 1300 1299 1298 1297 1296 1294 1293 1293 1292 1291 1290 1289 1289 1289 1289 1288 1288
1408 1407 1406 1405 1404 1403 1401 1400 1399 1398 1397 1395 1394 1393 1391 1390 1389 1388 1387 1385 1384 1382 1381 1379 1377 1375 1373 1372 1370 1369 1367 1365 1364 1363 1362 1361 1360 1358 1357 1354 1352 1350 1349 1348 1347 1344 1342 1340 1337 1334 1331 1328 1325 1323 1322 1320 1318 1315 1313 1311 1309 1308 1307 1306 1306 1304 1303 1301 1300 1298 1296 1295 1294 1293 1292 1290 1290 1289 1288 1286 1286 1285 1285 1285 1284 1283
1407 1406 1405 1404 1403 1402 1400 1399 1398 1396 1395 1394 1393 1391 1390 1388 1387 1386 1385 1383 1382 1380 1379 1377 1375 1373 1371 1369 1368 1366 1365 1363 1362 1361 1359 1358 1357 1356 1355 1353 1350 1348 1346 1345 1344 1343 1340 1338 1335 1333 1330 1328 1324 1321 1319 1317 1315 1313 1312 1309 1307 1304 1304 1304 1303 1302 1300 1299 1297 1296 1294 1292 1291 1290 1289 1288 1287 1286 1285 1284 1283 1282 1282 1282 1281 1280
1406 1405 1404 1403 1402 1400 1399 1398 1397 1395 1394 1392 1391 1390 1388 1387 1386 1384 1383 1381 1379 1378 1377 1375 1373 1370 1368 1367 1365 1364 1363 1361 1360 1358 1357 1356 1354 1353 1352 1350 1348 1346 1344 1343 1341 1339 1338 1336 1333 1330 1328 1326 1323 1320 1317 1315 1313 1312 1311 1308 1305 1302 1301 1300 1300 1298 1297 1296 1294 1293 1292 1290 1288 1287 1286 1285 1283 1283 1282 1281 1280 1279 1279 1278 1278 1277
1405 1404 1403 1401 1400 1399 1398 1397 1395 1394 1393 1391 1390 1388 1387 1386 1384 1383 1380 1378 1377 1375 1374 1372 1370 1368 1365 1363 1362 1361 1360 1359 1357 1356 1355 1353 1352 1351 1349 1348 1346 1344 1343 1341 1338 1337 1335 1333 1331 1328 1326 1324 1321 1318 1315 1312 1310 1309 1308 1306 1303 1300 1298 1296 1296 1296 1295 1293 1292 1291 1289 1288 1286 1284 1283 1282 1280 1279 1278 1278 1277 1276 1276 1275 1274 1273
1404 1403 1401 1400 1399 1398 1397 1395 1394 1393 1392 1390 1389 1387 1386 1385 1383 1381 1379 1377 1375 1373 1372 1370 1368 1366 1363 1360 1358 1357 1357 1356 1355 1353 1352 1351 1350 1348 1347 1346 1344 1343 1341 1339 1336 1333 1332 1331 1329 1326 1323 1322 1320 1317 1313 1310 1307 1306 1305 1303 1302 1300 1297 1293 1292 1293 1292 1291 1289 1288 1287 1285 1283 1282 1280 1278 1277 1276 1275 1274 1273 1273 1272 1272 1271 1270
1403 1401 1400 1399 1398 1397 1395 1394 1393 1391 1390 1389 1387 1386 1385 1383 1382 1380 1378 1376 1374 1372 1370 1368 1367 1364 1362 1359 1357 1355 1353 1352 1352 1351 1350 1348 1348 1346 1345 1343 1342 1340 1339 1337 1335 1332 1329 1327 1325 1323 1322 1320 1318 1315 1311 1308 1305 1303 1301 1300 1300 1298 1296 1292 1290 1289 1288 1287 1286 1285 1283 1282 1281 1279 1277 1275 1273 1272 1271 1270 1269 1268 1268 1267 1267 1266
1402 1400 1399 1398 1397 1396 1394 1393 1391 1390 1389 1388 1386 1385 1383 1382 1381 1379 1377 1374 1372 1370 1369 1367 1366 1363 1361 1358 1356 1353 1351 1349 1348 1347 1347 1346 1345 1344 1343 1341 1339 1338 1336 1334 1333 1330 1328 1325 1322 1320 1319 1318 1316 1313 1309 1306 1303 1301 1298 1297 1296 1295 1293 1290 1288 1287 1285 1284 1282 1281 1280 1279 1278 1276 1274 1272 1270 1269 1268 1267 1266 1265 1264 1263 1263 1262
1401 1399 1398 1397 1396 1394 1393 1392 1390 1389 1388 1386 1385 1383 1382 1380 1379 1377 1375 1373 1371 1369 1368 1366 1365 1363 1360 1357 1355 1353 1350 1348 1345 1344 1343 1343 1342 1341 1340 1338 1337 1335 1333 1331 1329 1328 1326 1323 1321 1318 1316 1314 1312 1309 1307 1304 1302 1299 1296 1294 1293 1292 1289 1287 1286 1284 1283 1281 1279 1278 1277 1277 1276 1274 1271 1269 1267 1266 1265 1264 1263 1262 1261 1260 1259 1258
1400 1398 1397 1396 1394 1393 1392 1390 1389 1388 1386 1385 1383 1382 1380 1379 1377 1375 1374 1372 1370 1368 1366 1365 1363 1362 1359 1357 1354 1352 1350 1347 1344 1342 1341 1339 1338 1337 1336 1335 1334 1333 1331 1329 1327 1324 1322 1320 1318 1317 1315 1313 1309 1306 1303 1301 1299 1297 1294 1292 1291 1289 1287 1284 1282 1281 1280 1279 1277 1275 1275 1274 1273 1271 1269 1267 1264 1263 1262 1261 1260 1259 1258 1257 1256 1255
1399 1398 1396 1394 1393 1392 1391 1389 1388 1387 1385 1383 1382 1380 1379 1378 1376 1374 1372 1371 1369 1367 1365 1363 1362 1360 1358 1355 1353 1351 1349 1347 1344 1342 1339 1338 1336 1335 1333 1332 1331 1329 1328 1326 1324 1322 1319 1318 1316 1314 1313 1311 1308 1303 1300 1298 1296 1294 1292 1290 1288 1286 1283 1281 1279 1278 1278 1276 1275 1273 1273 1272 1271 1269 1267 1264 1262 1259 1258 1257 1256 1256 1255 1254 1253 1252
1398 1396 1395 1393 1392 1391 1390 1388 1387 1386 1384 1382 1380 1379 1377 1376 1375 1373 1371 1369 1368 1366 1364 1362 1360 1358 1356 1353 1351 1350 1348 1346 1343 1341 1339 1337 1335 1333 1331 1329 1328 1326 1324 1322 1320 1318 1316 1314 1312 1311 1310 1308 1306 1302 1298 1295 1293 1291 1290 1288 1286 1284 1281 1278 1277 1276 1275 1274 1273 1272 1271 1270 1268 1267 1265 1263 1259 1256 1254 1253 1252 1252 1251 1250 1249 1248
1397 1395 1394 1393 1392 1390 1389 1388 1386 1384 1383 1381 1379 1378 1376 1374 1373 1372 1370 1368 1367 1365 1363 1361 1359 1357 1354 1352 1350 1348 1346 1344 1342 1339 1337 1336 1334 1332 1330 1328 1326 1324 1321 1319 1317 1314 1313 1310 1308 1307 1306 1306 1304 1301 1297 1293 1291 1289 1287 1285 1283 1282 1279 1277 1275 1273 1273 1272 1271 1269 1268 1267 1266 1264 1263 1260 1257 1253 1250 1249 1248 1247 1247 1247 1246 1244
1396 1394 1393 1392 1391 1389 1388 1387 1385 1383 1382 1380 1378 1376 1374 1373 1371 1370 1368 1367 1365 1363 1361 1360 1358 1356 1353 1351 1348 1346 1345 1343 1340 1338 1336 1334 1332 1330 1328 1326 1324 1322 1320 1317 1314 1312 1310 1308 1304 1302 1302 1302 1302 1300 1297 1293 1290 1287 1285 1283 1281 1280 1278 1275 1273 1272 1271 1270 1268 1267 1266 1264 1263 1261 1260 1258 1254 1251 1247 1245 1244 1243 1243 1243 1243 1241